This demonstration page uses our WeatherBlox Daily Observations layout. Learn more.

Left ArrowRight Arrow

Hourly Observations for April 21, 2017

Temp ( °F °C ) Dew Point ( °F °C ) Humidity (%) Winds ( mph kmh ) Pressure ( in mb ) Visibility ( mi km ) Precip ( " mm )
12:53 am 00:53 Cloudy 52 11.1 35 1.7 53 53 E 6 9 29.97 1015 10 16 0.00 0.00
1:53 am 01:53 Cloudy 50 10 36 2.2 59 59 WSW 8 13 29.97 1015 10 16 0.00 0.00
2:53 am 02:53 Cloudy 49 9.4 36 2.2 61 61 SW 15 24 29.98 1015 10 16 0.00 0.00
3:53 am 03:53 Mostly Cloudy 47 8.3 37 2.8 69 69 SW 16 26 30.02 1017 10 16 0.00 0.00
4:53 am 04:53 Clear 46 7.8 39 3.9 77 77 SW 16 26 30.03 1017 10 16 0.00 0.00
5:53 am 05:53 Clear 44 6.7 38 3.3 79 79 SW 16 26 30.05 1018 10 16 0.00 0.00
6:53 am 06:53 Sunny 43 6.1 39 3.9 86 86 SW 13 20 30.08 1019 10 16 0.00 0.00
7:53 am 07:53 Mostly Cloudy 47 8.3 40 4.4 77 77 SW 18 30 30.09 1019 10 16 0.00 0.00
8:53 am 08:53 Sunny 48 8.9 41 5 77 77 SW 16 26 30.11 1020 10 16 0.00 0.00
9:53 am 09:53 Mostly Cloudy 50 10 39 3.9 66 66 W 12 19 30.11 1020 10 16 0.00 0.00
10:38 am 10:38 Cloudy 48 9 43 6 82 82 SW 18 30 30.12 1020 10 16 0.00 0.00
10:53 am 10:53 Cloudy 51 10.6 42 5.6 71 71 SW 15 24 30.13 1020 10 16 0.00 0.00
11:53 am 11:53 Cloudy 52 11.1 39 3.9 61 61 W 10 17 30.14 1021 10 16 0.00 0.00
12:53 pm 12:53 Partly Cloudy 55 12.8 40 4.4 57 57 W 12 19 30.15 1021 10 16 0.00 0.00
1:53 pm 13:53 Mostly Cloudy 56 13.3 40 4.4 55 55 W 12 19 30.16 1021 10 16 0.00 0.00
2:53 pm 14:53 Mostly Cloudy 55 12.8 40 4.4 57 57 WSW 14 22 30.18 1022 10 16 0.00 0.00
3:53 pm 15:53 Mostly Sunny 57 13.9 42 5.6 58 58 WSW 20 31 30.18 1022 10 16 0.00 0.00
4:53 pm 16:53 Mostly Cloudy 55 12.8 43 6.1 64 64 WNW 18 30 30.19 1022 10 16 0.00 0.00
5:00 pm 17:00 Partly Cloudy 55 13 43 6 63 63 WNW 17 28 30.15 1021 10 16 0.00 0.00
5:22 pm 17:22 Mostly Cloudy 54 12 43 6 67 67 N 21 33 30.15 1021 10 16 0.00 0.00
5:53 pm 17:53 Mostly Cloudy 50 10 41 5 71 71 NNW 18 30 30.24 1024 10 16 0.00 0.00
6:19 pm 18:19 Mostly Cloudy 49 9.4 40 4.4 71 71 NNW 14 22 30.21 1023 10 16 0.00 0.00
6:53 pm 18:53 Cloudy 47 8.3 39 3.9 74 74 NNW 15 24 30.29 1026 10 16 0.00 0.00
7:53 pm 19:53 Cloudy 44 6.7 38 3.3 79 79 N 13 20 30.29 1026 10 16 0.00 0.00
8:53 pm 20:53 Cloudy 45 7.2 37 2.8 74 74 N 12 19 30.30 1026 10 16 0.00 0.00
9:53 pm 21:53 Cloudy 44 6.7 37 2.8 76 76 NE 8 13 30.32 1027 10 16 0.00 0.00
10:53 pm 22:53 Cloudy 43 6.1 38 3.3 82 82 NNE 3 6 30.31 1027 10 16 0.00 0.00
11:53 pm 23:53 Cloudy 43 6.1 38 3.3 82 82 ENE 5 7 30.32 1027 10 16 0.00 0.00

Powered by AerisWeather